This demonstration page uses our WeatherBlox Daily Observations layout. Learn more.

Left ArrowRight Arrow

Hourly Observations for July 20, 2021

Temp ( °F °C ) Dew Point ( °F °C ) Humidity (%) Winds ( mph kmh ) Pressure ( in mb ) Visibility ( mi km ) Precip ( " mm )
12:53 am 00:53 Mostly Clear 70 21.1 64 17.8 82 82 N 6 9 29.99 1016 10 16 0.00 0.00
1:53 am 01:53 Mostly Cloudy with Light Rain 69 20.6 65 18.3 87 87 E 5 7 29.99 1016 8 13 0.00 0.00
2:53 am 02:53 Mostly Cloudy 69 20.6 64 17.8 84 84 N 9 15 29.98 1015 10 16 0.00 0.00
3:53 am 03:53 Partly Cloudy 69 20.6 64 17.8 84 84 NE 3 6 29.98 1015 10 16 0.00 0.00
4:53 am 04:53 Cloudy 69 20.6 63 17.2 81 81 NE 8 13 29.97 1015 9 14 0.00 0.00
5:53 am 05:53 Partly Cloudy 69 20.6 63 17.2 81 81 NE 5 7 29.98 1015 9 14 0.00 0.00
6:53 am 06:53 Cloudy with Light Rain 68 20 63 17.2 84 84 ENE 8 13 29.99 1016 6 10 0.00 0.00
7:53 am 07:53 Cloudy 68 20 64 17.8 87 87 ESE 6 9 30.00 1016 7 11 0.00 0.00
8:53 am 08:53 Mostly Cloudy 71 21.7 63 17.2 76 76 ESE 5 7 29.99 1016 8 13 0.00 0.00
9:53 am 09:53 Mostly Cloudy 74 23.3 61 16.1 64 64 ESE 6 9 29.99 1016 10 16 0.00 0.00
10:53 am 10:53 Partly Cloudy 79 26.1 60 15.6 52 52 E 8 13 29.97 1015 10 16 0.00 0.00
11:53 am 11:53 Sunny 83 28.3 60 15.6 46 46 E 12 19 29.96 1015 10 16 0.00 0.00
12:53 pm 12:53 Sunny 86 30 58 14.4 39 39 VRB 7 11 29.94 1014 10 16 0.00 0.00
1:53 pm 13:53 Sunny 87 30.6 57 13.9 36 36 E 10 17 29.92 1013 10 16 0.00 0.00
2:53 pm 14:53 Sunny 89 31.7 54 12.2 30 30 Calm 29.90 1013 10 16 0.00 0.00
3:53 pm 15:53 Sunny 89 31.7 54 12.2 30 30 Calm 29.88 1012 10 16 0.00 0.00
4:53 pm 16:53 Sunny 90 32.2 53 11.7 28 28 NE 7 11 29.85 1011 10 16 0.00 0.00
5:53 pm 17:53 Sunny 90 32.2 52 11.1 27 27 SW 5 7 29.84 1011 10 16 0.00 0.00
6:53 pm 18:53 Sunny 90 32.2 53 11.7 28 28 SSE 3 6 29.84 1011 10 16 0.00 0.00
7:53 pm 19:53 Sunny 88 31.1 55 12.8 33 33 ESE 3 6 29.84 1011 9 14 0.00 0.00
8:53 pm 20:53 Sunny 81 27.2 59 15 47 47 SE 3 6 29.85 1011 9 14 0.00 0.00
9:53 pm 21:53 Clear 76 24.4 55 12.8 48 48 S 6 9 29.85 1011 10 16 0.00 0.00
10:53 pm 22:53 Clear 77 25 55 12.8 47 47 SSE 7 11 29.85 1011 10 16 0.00 0.00
11:53 pm 23:53 Clear 76 24.4 55 12.8 48 48 ENE 5 7 29.83 1010 10 16 0.00 0.00

Powered by AerisWeather